Location: Haliburton Scout Reserve
(45.0900°N, 78.3200°W)
Time: 11:04:58
(UTC-05:00)

N. Korean satellite - Pass Details

Date: 06 December 2021
Orbit: 447 x 491 km, 97.3° (Epoch: 23 January)

Event Time Altitude Azimuth Distance (km) Brightness Sun altitude
Rises 06:43:07 0° 352° (N) 2,464 9.8 -9.3°
Reaches altitude 10° 06:46:05 10° 322° (NW) 1,582 8.6 -8.8°
Maximum altitude 06:47:36 13° 296° (WNW) 1,426 8.2 -8.6°
Drops below altitude 10° 06:49:07 10° 269° (W) 1,576 8.6 -8.4°
Sets 06:52:04 0° 239° (WSW) 2,443 9.8 -7.9°
